Year,Month,Day,Hour,Minute,Value (Times are PST for temperature in C)
2009,07,30,00,00,23.70
2009,07,30,00,05,23.70
2009,07,30,00,06,23.70
2009,07,30,00,07,23.70
2009,07,30,00,08,23.80
2009,07,30,00,09,23.80
2009,07,30,00,10,23.80
2009,07,30,00,11,23.80
2009,07,30,00,12,23.80
2009,07,30,00,13,23.70
2009,07,30,00,14,23.70
2009,07,30,00,15,23.70
2009,07,30,00,16,23.70
2009,07,30,00,17,23.70
2009,07,30,00,18,23.60
2009,07,30,00,19,23.60
2009,07,30,00,20,23.60
2009,07,30,00,21,23.50
2009,07,30,00,22,23.50
2009,07,30,00,23,23.50
2009,07,30,00,24,23.40
2009,07,30,00,25,23.40
2009,07,30,00,26,23.40
2009,07,30,00,27,23.40
2009,07,30,00,28,23.40
2009,07,30,00,29,23.30
2009,07,30,00,30,23.30
2009,07,30,00,31,23.30
2009,07,30,00,32,23.30
2009,07,30,00,33,23.30
2009,07,30,00,34,23.30
2009,07,30,00,35,23.30
2009,07,30,00,36,23.30
2009,07,30,00,37,23.20
2009,07,30,00,38,23.20
2009,07,30,00,39,23.20
2009,07,30,00,40,23.20
2009,07,30,00,41,23.20
2009,07,30,00,42,23.20
2009,07,30,00,43,23.20
2009,07,30,00,44,23.20
2009,07,30,00,45,23.10
2009,07,30,00,46,23.10
2009,07,30,00,47,23.20
2009,07,30,00,48,23.20
2009,07,30,00,49,23.20
2009,07,30,00,50,23.10
2009,07,30,00,51,23.10
2009,07,30,00,52,23.10
2009,07,30,00,53,23.10
2009,07,30,00,54,23.10
2009,07,30,00,55,23.10
2009,07,30,00,56,23.10
2009,07,30,00,57,23.10
2009,07,30,00,58,23.00
2009,07,30,00,59,23.00
2009,07,30,01,00,23.00
2009,07,30,01,01,23.10
2009,07,30,01,02,23.10
2009,07,30,01,03,23.00
2009,07,30,01,04,23.00
2009,07,30,01,05,22.90
2009,07,30,01,06,22.90
2009,07,30,01,07,22.90
2009,07,30,01,08,22.90
2009,07,30,01,09,22.90
2009,07,30,01,10,22.90
2009,07,30,01,11,22.80
2009,07,30,01,12,22.80
2009,07,30,01,13,22.80
2009,07,30,01,14,22.80
2009,07,30,01,15,22.70
2009,07,30,01,16,22.70
2009,07,30,01,17,22.70
2009,07,30,01,18,22.70
2009,07,30,01,19,22.70
2009,07,30,01,20,22.60
2009,07,30,01,21,22.60
2009,07,30,01,22,22.50
2009,07,30,01,23,22.50
2009,07,30,01,24,22.40
2009,07,30,01,25,22.40
2009,07,30,01,26,22.40
2009,07,30,01,27,22.40
2009,07,30,01,28,22.40
2009,07,30,01,29,22.40
2009,07,30,01,30,22.40
2009,07,30,01,31,22.40
2009,07,30,01,32,22.50
2009,07,30,01,33,22.50
2009,07,30,01,34,22.40
2009,07,30,01,35,22.40
2009,07,30,01,36,22.40
2009,07,30,01,37,22.40
2009,07,30,01,38,22.40
2009,07,30,01,39,22.40
2009,07,30,01,40,22.40
2009,07,30,01,41,22.50
2009,07,30,01,42,22.50
2009,07,30,01,43,22.50
2009,07,30,01,44,22.40
2009,07,30,01,45,22.40
2009,07,30,01,46,22.50
2009,07,30,01,47,22.50
2009,07,30,01,48,22.50
2009,07,30,01,49,22.50
2009,07,30,01,50,22.50
2009,07,30,01,51,22.40
2009,07,30,01,52,22.40
2009,07,30,01,53,22.40
2009,07,30,01,54,22.40
2009,07,30,01,55,22.40
2009,07,30,01,56,22.30
2009,07,30,01,57,22.30
2009,07,30,01,58,22.30
2009,07,30,01,59,22.30
2009,07,30,02,00,22.30
2009,07,30,02,01,22.30
2009,07,30,02,02,22.30
2009,07,30,02,03,22.30
2009,07,30,02,04,22.30
2009,07,30,02,05,22.30
2009,07,30,02,06,22.30
2009,07,30,02,07,22.30
2009,07,30,02,08,22.30
2009,07,30,02,09,22.40
2009,07,30,02,10,22.40
2009,07,30,02,11,22.40
2009,07,30,02,12,22.40
2009,07,30,02,13,22.40
2009,07,30,02,14,22.40
2009,07,30,02,15,22.30
2009,07,30,02,16,22.30
2009,07,30,02,17,22.30
2009,07,30,02,18,22.30
2009,07,30,02,19,22.30
2009,07,30,02,20,22.20
2009,07,30,02,21,22.20
2009,07,30,02,22,22.20
2009,07,30,02,23,22.10
2009,07,30,02,24,22.10
2009,07,30,02,25,22.00
2009,07,30,02,26,22.00
2009,07,30,02,27,22.00
2009,07,30,02,28,21.90
2009,07,30,02,29,21.90
2009,07,30,02,30,21.90
2009,07,30,02,31,21.80
2009,07,30,02,32,21.80
2009,07,30,02,33,21.80
2009,07,30,02,34,21.80
2009,07,30,02,35,21.80
2009,07,30,02,36,21.80
2009,07,30,02,37,21.80
2009,07,30,02,38,21.80
2009,07,30,02,39,21.70
2009,07,30,02,40,21.70
2009,07,30,02,41,21.70
2009,07,30,02,42,21.70
2009,07,30,02,43,21.60
2009,07,30,02,44,21.60
2009,07,30,02,45,21.60
2009,07,30,02,46,21.50
2009,07,30,02,47,21.50
2009,07,30,02,48,21.50
2009,07,30,02,49,21.40
2009,07,30,02,50,21.40
2009,07,30,02,51,21.40
2009,07,30,02,52,21.40
2009,07,30,02,53,21.40
2009,07,30,02,54,21.40
2009,07,30,02,55,21.40
2009,07,30,02,56,21.40
2009,07,30,02,57,21.40
2009,07,30,02,58,21.40
2009,07,30,02,59,21.40
2009,07,30,03,00,21.40
2009,07,30,03,01,21.40
2009,07,30,03,02,21.40
2009,07,30,03,03,21.40
2009,07,30,03,04,21.40
2009,07,30,03,05,21.40
2009,07,30,03,06,21.40
2009,07,30,03,07,21.40
2009,07,30,03,08,21.40
2009,07,30,03,09,21.50
2009,07,30,03,10,21.50
2009,07,30,03,11,21.50
2009,07,30,03,12,21.50
2009,07,30,03,13,21.50
2009,07,30,03,14,21.50
2009,07,30,03,15,21.50
2009,07,30,03,16,21.40
2009,07,30,03,17,21.40
2009,07,30,03,18,21.40
2009,07,30,03,19,21.40
2009,07,30,03,20,21.40
2009,07,30,03,21,21.40
2009,07,30,03,22,21.40
2009,07,30,03,23,21.40
2009,07,30,03,24,21.40
2009,07,30,03,25,21.40
2009,07,30,03,26,21.30
2009,07,30,03,27,21.30
2009,07,30,03,28,21.30
2009,07,30,03,29,21.30
2009,07,30,03,30,21.40
2009,07,30,03,31,21.40
2009,07,30,03,32,21.40
2009,07,30,03,33,21.40
2009,07,30,03,34,21.40
2009,07,30,03,35,21.40
2009,07,30,03,36,21.40
2009,07,30,03,37,21.40
2009,07,30,03,38,21.40
2009,07,30,03,39,21.40
2009,07,30,03,40,21.40
2009,07,30,03,41,21.40
2009,07,30,03,42,21.40
2009,07,30,03,43,21.30
2009,07,30,03,44,21.30
2009,07,30,03,45,21.30
2009,07,30,03,46,21.30
2009,07,30,03,47,21.20
2009,07,30,03,48,21.20
2009,07,30,03,49,21.20
2009,07,30,03,50,21.20
2009,07,30,03,51,21.20
2009,07,30,03,52,21.20
2009,07,30,03,53,21.20
2009,07,30,03,54,21.20
2009,07,30,03,55,21.20
2009,07,30,03,56,21.20
2009,07,30,03,57,21.20
2009,07,30,03,58,21.10
2009,07,30,03,59,21.10
2009,07,30,04,00,21.10
2009,07,30,04,01,21.10
2009,07,30,04,02,21.10
2009,07,30,04,03,21.10
2009,07,30,04,04,21.10
2009,07,30,04,05,21.10
2009,07,30,04,06,21.10
2009,07,30,04,07,21.10
2009,07,30,04,08,21.10
2009,07,30,04,09,21.10
2009,07,30,04,10,21.10
2009,07,30,04,11,21.10
2009,07,30,04,12,21.10
2009,07,30,04,13,21.20
2009,07,30,04,14,21.20
2009,07,30,04,15,21.20
2009,07,30,04,16,21.20
2009,07,30,04,17,21.20
2009,07,30,04,18,21.20
2009,07,30,04,19,21.20
2009,07,30,04,20,21.30
2009,07,30,04,21,21.30
2009,07,30,04,22,21.30
2009,07,30,04,23,21.20
2009,07,30,04,24,21.20
2009,07,30,04,25,21.20
2009,07,30,04,26,21.20
2009,07,30,04,27,21.20
2009,07,30,04,28,21.20
2009,07,30,04,29,21.20
2009,07,30,04,30,21.20
2009,07,30,04,31,21.20
2009,07,30,04,32,21.20
2009,07,30,04,33,21.20
2009,07,30,04,34,21.20
2009,07,30,04,35,21.20
2009,07,30,04,36,21.20
2009,07,30,04,37,21.20
2009,07,30,04,38,21.20
2009,07,30,04,39,21.20
2009,07,30,04,40,21.20
2009,07,30,04,41,21.20
2009,07,30,04,42,21.30
2009,07,30,04,43,21.30
2009,07,30,04,44,21.30
2009,07,30,04,45,21.30
2009,07,30,04,46,21.20
2009,07,30,04,47,21.20
2009,07,30,04,48,21.20
2009,07,30,04,49,21.10
2009,07,30,04,50,21.10
2009,07,30,04,51,21.00
2009,07,30,04,52,21.00
2009,07,30,04,53,20.90
2009,07,30,04,54,20.90
2009,07,30,04,55,20.90
2009,07,30,04,56,20.90
2009,07,30,04,57,20.90
2009,07,30,04,58,20.90
2009,07,30,04,59,20.80
2009,07,30,05,00,20.90
2009,07,30,05,01,20.90
2009,07,30,05,02,20.90
2009,07,30,05,03,20.80
2009,07,30,05,04,20.80
2009,07,30,05,05,20.80
2009,07,30,05,06,20.80
2009,07,30,05,07,20.80
2009,07,30,05,08,20.70
2009,07,30,05,09,20.70
2009,07,30,05,10,20.70
2009,07,30,05,11,20.70
2009,07,30,05,12,20.70
2009,07,30,05,13,20.70
2009,07,30,05,14,20.70
2009,07,30,05,15,20.70
2009,07,30,05,16,20.70
2009,07,30,05,17,20.80
2009,07,30,05,18,20.80
2009,07,30,05,19,20.80
2009,07,30,05,20,20.80
2009,07,30,05,21,20.80
2009,07,30,05,22,20.90
2009,07,30,05,23,20.90
2009,07,30,05,24,21.00
2009,07,30,05,25,21.00
2009,07,30,05,26,21.10
2009,07,30,05,27,21.00
2009,07,30,05,28,21.00
2009,07,30,05,29,21.00
2009,07,30,05,30,21.00
2009,07,30,05,31,21.00
2009,07,30,05,32,20.90
2009,07,30,05,33,20.90
2009,07,30,05,34,20.90
2009,07,30,05,35,20.80
2009,07,30,05,36,20.80
2009,07,30,05,37,20.80
2009,07,30,05,38,20.80
2009,07,30,05,39,20.80
2009,07,30,05,40,20.80
2009,07,30,05,41,20.80
2009,07,30,05,42,20.80
2009,07,30,05,43,20.80
2009,07,30,05,44,20.80
2009,07,30,05,45,20.70
2009,07,30,05,46,20.70
2009,07,30,05,47,20.70
2009,07,30,05,48,20.80
2009,07,30,05,49,20.80
2009,07,30,05,50,20.80
2009,07,30,05,51,20.80
2009,07,30,05,52,20.80
2009,07,30,05,53,20.70
2009,07,30,05,54,20.70
2009,07,30,05,55,20.70
2009,07,30,05,56,20.70
2009,07,30,05,57,20.70
2009,07,30,05,58,20.70
2009,07,30,05,59,20.70
2009,07,30,06,00,20.70
2009,07,30,06,01,20.70
2009,07,30,06,02,20.70
2009,07,30,06,03,20.70
2009,07,30,06,04,20.70
2009,07,30,06,05,20.70
2009,07,30,06,06,20.80
2009,07,30,06,07,20.80
2009,07,30,06,08,20.80
2009,07,30,06,09,20.80
2009,07,30,06,10,20.80
2009,07,30,06,11,20.80
2009,07,30,06,12,20.80
2009,07,30,06,13,20.80
2009,07,30,06,14,20.80
2009,07,30,06,15,20.80
2009,07,30,06,16,20.80
2009,07,30,06,17,20.70
2009,07,30,06,18,20.70
2009,07,30,06,19,20.70
2009,07,30,06,20,20.70
2009,07,30,06,21,20.80
2009,07,30,06,22,20.80
2009,07,30,06,23,20.80
2009,07,30,06,24,20.80
2009,07,30,06,25,20.80
2009,07,30,06,26,20.80
2009,07,30,06,27,20.80
2009,07,30,06,28,20.80
2009,07,30,06,29,20.80
2009,07,30,06,30,20.80
2009,07,30,06,31,20.80
2009,07,30,06,32,20.80
2009,07,30,06,33,20.80
2009,07,30,06,34,20.80
2009,07,30,06,35,20.90
2009,07,30,06,36,20.90
2009,07,30,06,37,20.90
2009,07,30,06,38,20.90
2009,07,30,06,39,20.90
2009,07,30,06,40,20.90
2009,07,30,06,41,20.90
2009,07,30,06,42,20.90
2009,07,30,06,43,21.00
2009,07,30,06,44,21.00
2009,07,30,06,45,21.00
2009,07,30,06,46,21.10
2009,07,30,06,47,21.10
2009,07,30,06,48,21.10
2009,07,30,06,49,21.10
2009,07,30,06,50,21.20
2009,07,30,06,51,21.20
2009,07,30,06,52,21.20
2009,07,30,06,53,21.30
2009,07,30,06,54,21.30
2009,07,30,06,55,21.30
2009,07,30,06,56,21.40
2009,07,30,06,57,21.40
2009,07,30,06,58,21.50
2009,07,30,06,59,21.50
2009,07,30,07,00,21.60
2009,07,30,07,01,21.80
2009,07,30,07,02,21.80
2009,07,30,07,03,21.90
2009,07,30,07,04,22.00
2009,07,30,07,05,22.00
2009,07,30,07,06,22.10
2009,07,30,07,07,22.10
2009,07,30,07,08,22.20
2009,07,30,07,09,22.20
2009,07,30,07,10,22.30
2009,07,30,07,11,22.30
2009,07,30,07,12,22.40
2009,07,30,07,13,22.50
2009,07,30,07,14,22.50
2009,07,30,07,15,22.60
2009,07,30,07,16,22.60
2009,07,30,07,17,22.70
2009,07,30,07,18,22.70
2009,07,30,07,19,22.80
2009,07,30,07,20,22.80
2009,07,30,07,21,22.90
2009,07,30,07,22,23.00
2009,07,30,07,23,23.00
2009,07,30,07,24,23.20
2009,07,30,07,25,23.30
2009,07,30,07,26,23.30
2009,07,30,07,27,23.40
2009,07,30,07,28,23.50
2009,07,30,07,29,23.60
2009,07,30,07,30,23.60
2009,07,30,07,31,23.70
2009,07,30,07,32,23.80
2009,07,30,07,33,23.80
2009,07,30,07,34,23.90
2009,07,30,07,35,23.90
2009,07,30,07,36,24.00
2009,07,30,07,37,24.00
2009,07,30,07,38,24.10
2009,07,30,07,39,24.10
2009,07,30,07,40,24.10
2009,07,30,07,41,24.10
2009,07,30,07,42,24.10
2009,07,30,07,43,24.20
2009,07,30,07,44,24.20
2009,07,30,07,45,24.30
2009,07,30,07,46,24.30
2009,07,30,07,47,24.40
2009,07,30,07,48,24.50
2009,07,30,07,49,24.60
2009,07,30,07,50,24.70
2009,07,30,07,51,24.70
2009,07,30,07,52,24.80
2009,07,30,07,53,24.80
2009,07,30,07,54,24.90
2009,07,30,07,55,24.90
2009,07,30,07,56,25.00
2009,07,30,07,57,25.00
2009,07,30,07,58,25.10
2009,07,30,07,59,25.10
2009,07,30,08,00,25.10
2009,07,30,08,01,25.20
2009,07,30,08,02,25.20
2009,07,30,08,03,25.20
2009,07,30,08,04,25.30
2009,07,30,08,05,25.30
2009,07,30,08,06,25.30
2009,07,30,08,07,25.30
2009,07,30,08,08,25.30
2009,07,30,08,09,25.30
2009,07,30,08,10,25.30
2009,07,30,08,11,25.30
2009,07,30,08,12,25.30
2009,07,30,08,13,25.40
2009,07,30,08,14,25.50
2009,07,30,08,15,25.50
2009,07,30,08,16,25.60
2009,07,30,08,17,25.70
2009,07,30,08,18,25.70
2009,07,30,08,19,25.70
2009,07,30,08,20,25.70
2009,07,30,08,21,25.70
2009,07,30,08,22,25.60
2009,07,30,08,23,25.60
2009,07,30,08,24,25.60
2009,07,30,08,25,25.60
2009,07,30,08,26,25.60
2009,07,30,08,27,25.60
2009,07,30,08,28,25.50
2009,07,30,08,29,25.50
2009,07,30,08,30,25.40
2009,07,30,08,31,25.40
2009,07,30,08,32,25.40
2009,07,30,08,33,25.40
2009,07,30,08,34,25.40
2009,07,30,08,35,25.40
2009,07,30,08,36,25.30
2009,07,30,08,37,25.30
2009,07,30,08,38,25.30
2009,07,30,08,39,25.30
2009,07,30,08,40,25.30
2009,07,30,08,41,25.20
2009,07,30,08,42,25.20
2009,07,30,08,43,25.20
2009,07,30,08,44,25.20
2009,07,30,08,45,25.30
2009,07,30,08,46,25.30
2009,07,30,08,47,25.30
2009,07,30,08,48,25.30
2009,07,30,08,49,25.40
2009,07,30,08,50,25.40
2009,07,30,08,51,25.50
2009,07,30,08,52,25.60
2009,07,30,08,53,25.60
2009,07,30,08,54,25.70
2009,07,30,08,55,25.70
2009,07,30,08,56,25.70
2009,07,30,08,57,25.70
2009,07,30,08,58,25.70
2009,07,30,08,59,25.70
2009,07,30,09,00,25.70
2009,07,30,09,01,25.80
2009,07,30,09,02,25.90
2009,07,30,09,03,25.90
2009,07,30,09,04,25.90
2009,07,30,09,05,25.90
2009,07,30,09,06,25.90
2009,07,30,09,07,25.90
2009,07,30,09,08,25.90
2009,07,30,09,09,25.90
2009,07,30,09,10,25.90
2009,07,30,09,11,25.90
2009,07,30,09,12,25.90
2009,07,30,09,13,25.90
2009,07,30,09,14,25.90
2009,07,30,09,15,25.90
2009,07,30,09,16,25.90
2009,07,30,09,17,25.90
2009,07,30,09,18,26.00
2009,07,30,09,19,26.00
2009,07,30,09,20,26.10
2009,07,30,09,21,26.20
2009,07,30,09,22,26.20
2009,07,30,09,23,26.20
2009,07,30,09,24,26.20
2009,07,30,09,25,26.20
2009,07,30,09,26,26.20
2009,07,30,09,27,26.20
2009,07,30,09,28,26.20
2009,07,30,09,29,26.20
2009,07,30,09,30,26.20
2009,07,30,09,31,26.20
2009,07,30,09,32,26.20
2009,07,30,09,33,26.20
2009,07,30,09,34,26.20
2009,07,30,09,35,26.30
2009,07,30,09,36,26.30
2009,07,30,09,37,26.30
2009,07,30,09,38,26.40
2009,07,30,09,39,26.50
2009,07,30,09,40,26.60
2009,07,30,09,41,26.60
2009,07,30,09,42,26.70
2009,07,30,09,43,26.80
2009,07,30,09,44,26.90
2009,07,30,09,45,27.00
2009,07,30,09,46,27.00
2009,07,30,09,47,27.00
2009,07,30,09,48,26.90
2009,07,30,09,49,26.90
2009,07,30,09,50,26.90
2009,07,30,09,51,26.90
2009,07,30,09,52,26.90
2009,07,30,09,53,26.90
2009,07,30,09,54,27.00
2009,07,30,09,55,27.00
2009,07,30,09,56,27.10
2009,07,30,09,57,27.10
2009,07,30,09,58,27.10
2009,07,30,09,59,27.20
2009,07,30,10,00,27.20
2009,07,30,10,01,27.30
2009,07,30,10,02,27.30
2009,07,30,10,03,27.40
2009,07,30,10,04,27.40
2009,07,30,10,05,27.40
2009,07,30,10,06,27.40
2009,07,30,10,07,27.30
2009,07,30,10,08,27.20
2009,07,30,10,09,27.20
2009,07,30,10,10,27.10
2009,07,30,10,11,27.10
2009,07,30,10,12,27.10
2009,07,30,10,13,27.00
2009,07,30,10,14,27.00
2009,07,30,10,15,27.10
2009,07,30,10,16,27.10
2009,07,30,10,17,27.10
2009,07,30,10,18,27.10
2009,07,30,10,19,27.10
2009,07,30,10,20,27.10
2009,07,30,10,21,26.90
2009,07,30,10,22,26.80
2009,07,30,10,23,26.80
2009,07,30,10,24,26.80
2009,07,30,10,25,26.80
2009,07,30,10,26,26.50
2009,07,30,10,27,26.30
2009,07,30,10,28,26.20
2009,07,30,10,29,26.20
2009,07,30,10,30,26.30
2009,07,30,10,31,26.30
2009,07,30,10,32,26.40
2009,07,30,10,33,26.40
2009,07,30,10,34,26.50
2009,07,30,10,35,26.60
2009,07,30,10,36,26.70
2009,07,30,10,37,26.70
2009,07,30,10,38,26.80
2009,07,30,10,39,26.80
2009,07,30,10,40,26.80
2009,07,30,10,41,26.80
2009,07,30,10,42,26.80
2009,07,30,10,43,26.80
2009,07,30,10,44,26.80
2009,07,30,10,45,26.70
2009,07,30,10,46,26.80
2009,07,30,10,47,26.90
2009,07,30,10,48,27.00
2009,07,30,10,49,27.00
2009,07,30,10,50,27.10
2009,07,30,10,51,27.10
2009,07,30,10,52,27.20
2009,07,30,10,53,27.30
2009,07,30,10,54,27.40
2009,07,30,10,55,27.50
2009,07,30,10,56,27.60
2009,07,30,10,57,27.70
2009,07,30,10,58,27.80
2009,07,30,10,59,27.90
2009,07,30,11,00,27.90
2009,07,30,11,01,27.90
2009,07,30,11,02,27.90
2009,07,30,11,03,27.80
2009,07,30,11,04,27.70
2009,07,30,11,05,27.60
2009,07,30,11,06,27.50
2009,07,30,11,07,27.30
2009,07,30,11,08,27.00
2009,07,30,11,09,26.80
2009,07,30,11,10,26.80
2009,07,30,11,11,26.70
2009,07,30,11,12,26.70
2009,07,30,11,13,26.80
2009,07,30,11,14,26.80
2009,07,30,11,15,26.70
2009,07,30,11,16,26.70
2009,07,30,11,17,26.70
2009,07,30,11,18,26.60
2009,07,30,11,19,26.70
2009,07,30,11,20,26.70
2009,07,30,11,21,26.90
2009,07,30,11,22,27.00
2009,07,30,11,23,27.10
2009,07,30,11,24,27.20
2009,07,30,11,25,27.40
2009,07,30,11,26,27.60
2009,07,30,11,27,27.70
2009,07,30,11,28,27.90
2009,07,30,11,29,27.90
2009,07,30,11,30,27.90
2009,07,30,11,31,27.90
2009,07,30,11,32,27.80
2009,07,30,11,33,27.80
2009,07,30,11,34,27.80
2009,07,30,11,35,27.60
2009,07,30,11,36,27.60
2009,07,30,11,37,27.40
2009,07,30,11,38,27.30
2009,07,30,11,39,27.20
2009,07,30,11,40,27.30
2009,07,30,11,41,27.40
2009,07,30,11,42,27.40
2009,07,30,11,43,27.30
2009,07,30,11,44,27.30
2009,07,30,11,45,27.40
2009,07,30,11,46,27.50
2009,07,30,11,47,27.60
2009,07,30,11,48,27.70
2009,07,30,11,49,27.90
2009,07,30,11,50,28.00
2009,07,30,11,51,28.00
2009,07,30,11,52,28.00
2009,07,30,11,53,28.00
2009,07,30,11,54,27.90
2009,07,30,11,55,27.80
2009,07,30,11,56,27.80
2009,07,30,11,57,27.80
2009,07,30,11,58,27.80
2009,07,30,11,59,27.80
2009,07,30,12,00,27.70
2009,07,30,12,01,27.70
2009,07,30,12,02,27.70
2009,07,30,12,03,27.70
2009,07,30,12,04,27.60
2009,07,30,12,05,27.60
2009,07,30,12,06,27.60
2009,07,30,12,07,27.70
2009,07,30,12,08,27.70
2009,07,30,12,09,27.70
2009,07,30,12,10,27.70
2009,07,30,12,11,27.60
2009,07,30,12,12,27.70
2009,07,30,12,13,27.70
2009,07,30,12,14,27.80
2009,07,30,12,15,27.70
2009,07,30,12,16,27.60
2009,07,30,12,17,27.40
2009,07,30,12,18,27.30
2009,07,30,12,19,27.20
2009,07,30,12,20,27.10
2009,07,30,12,21,27.00
2009,07,30,12,22,26.80
2009,07,30,12,23,26.70
2009,07,30,12,24,26.70
2009,07,30,12,25,26.70
2009,07,30,12,26,26.70
2009,07,30,12,27,26.80
2009,07,30,12,28,26.90
2009,07,30,12,29,26.90
2009,07,30,12,30,26.80
2009,07,30,12,31,26.80
2009,07,30,12,32,26.70
2009,07,30,12,33,26.70
2009,07,30,12,34,26.60
2009,07,30,12,35,26.50
2009,07,30,12,36,26.50
2009,07,30,12,37,26.40
2009,07,30,12,38,26.30
2009,07,30,12,39,26.40
2009,07,30,12,40,26.40
2009,07,30,12,41,26.50
2009,07,30,12,42,26.70
2009,07,30,12,43,26.80
2009,07,30,12,44,26.80
2009,07,30,12,45,26.80
2009,07,30,12,46,26.80
2009,07,30,12,47,26.90
2009,07,30,12,48,26.90
2009,07,30,12,49,27.00
2009,07,30,12,50,27.10
2009,07,30,12,51,27.20
2009,07,30,12,52,27.30
2009,07,30,12,53,27.40
2009,07,30,12,54,27.40
2009,07,30,12,55,27.50
2009,07,30,12,56,27.60
2009,07,30,12,57,27.60
2009,07,30,12,58,27.70
2009,07,30,12,59,27.80
2009,07,30,13,00,27.90
2009,07,30,13,01,28.00
2009,07,30,13,02,28.00
2009,07,30,13,03,28.10
2009,07,30,13,04,28.20
2009,07,30,13,05,28.20
2009,07,30,13,06,28.10
2009,07,30,13,07,28.00
2009,07,30,13,08,27.90
2009,07,30,13,09,27.80
2009,07,30,13,10,27.80
2009,07,30,13,11,27.80
2009,07,30,13,12,27.90
2009,07,30,13,13,27.90
2009,07,30,13,14,28.00
2009,07,30,13,15,28.10
2009,07,30,13,16,28.20
2009,07,30,13,17,28.10
2009,07,30,13,18,28.10
2009,07,30,13,19,28.00
2009,07,30,13,20,27.90
2009,07,30,13,21,27.80
2009,07,30,13,22,27.80
2009,07,30,13,23,27.80
2009,07,30,13,24,27.80
2009,07,30,13,25,27.90
2009,07,30,13,26,28.00
2009,07,30,13,27,28.10
2009,07,30,13,28,28.10
2009,07,30,13,29,28.20
2009,07,30,13,30,28.20
2009,07,30,13,31,28.20
2009,07,30,13,32,28.20
2009,07,30,13,33,28.20
2009,07,30,13,34,28.30
2009,07,30,13,35,28.30
2009,07,30,13,36,28.30
2009,07,30,13,37,28.30
2009,07,30,13,38,28.30
2009,07,30,13,39,28.30
2009,07,30,13,40,28.30
2009,07,30,13,41,28.20
2009,07,30,13,42,28.10
2009,07,30,13,43,28.00
2009,07,30,13,44,28.00
2009,07,30,13,45,28.10
2009,07,30,13,46,28.10
2009,07,30,13,47,28.20
2009,07,30,13,48,28.20
2009,07,30,13,49,28.30
2009,07,30,13,50,28.30
2009,07,30,13,51,28.20
2009,07,30,13,52,28.20
2009,07,30,13,53,28.20
2009,07,30,13,54,28.30
2009,07,30,13,55,28.30
2009,07,30,13,56,28.30
2009,07,30,13,57,28.30
2009,07,30,13,58,28.40
2009,07,30,13,59,28.50
2009,07,30,14,00,28.50
2009,07,30,14,01,28.50
2009,07,30,14,02,28.60
2009,07,30,14,03,28.60
2009,07,30,14,04,28.70
2009,07,30,14,05,28.70
2009,07,30,14,06,28.80
2009,07,30,14,07,28.90
2009,07,30,14,08,29.00
2009,07,30,14,09,29.00
2009,07,30,14,10,29.10
2009,07,30,14,11,29.10
2009,07,30,14,12,29.20
2009,07,30,14,13,29.20
2009,07,30,14,14,29.30
2009,07,30,14,15,29.30
2009,07,30,14,16,29.30
2009,07,30,14,17,29.40
2009,07,30,14,18,29.50
2009,07,30,14,19,29.50
2009,07,30,14,20,29.60
2009,07,30,14,21,29.60
2009,07,30,14,22,29.70
2009,07,30,14,23,29.70
2009,07,30,14,24,29.70
2009,07,30,14,25,29.70
2009,07,30,14,26,29.70
2009,07,30,14,27,29.60
2009,07,30,14,28,29.60
2009,07,30,14,29,29.50
2009,07,30,14,30,29.50
2009,07,30,14,31,29.40
2009,07,30,14,32,29.30
2009,07,30,14,33,29.30
2009,07,30,14,34,29.40
2009,07,30,14,35,29.40
2009,07,30,14,36,29.40
2009,07,30,14,37,29.50
2009,07,30,14,38,29.50
2009,07,30,14,39,29.60
2009,07,30,14,40,29.60
2009,07,30,14,41,29.50
2009,07,30,14,42,29.50
2009,07,30,14,43,29.50
2009,07,30,14,44,29.60
2009,07,30,14,45,29.50
2009,07,30,14,46,29.40
2009,07,30,14,47,29.40
2009,07,30,14,48,29.40
2009,07,30,14,49,29.50
2009,07,30,14,50,29.50
2009,07,30,14,51,29.40
2009,07,30,14,52,29.30
2009,07,30,14,53,29.20
2009,07,30,14,54,29.20
2009,07,30,14,55,29.20
2009,07,30,14,56,29.30
2009,07,30,14,57,29.40
2009,07,30,14,58,29.30
2009,07,30,14,59,29.30
2009,07,30,15,00,29.30
2009,07,30,15,01,29.30
2009,07,30,15,02,29.40
2009,07,30,15,03,29.40
2009,07,30,15,04,29.50
2009,07,30,15,05,29.40
2009,07,30,15,06,29.40
2009,07,30,15,07,29.40
2009,07,30,15,08,29.50
2009,07,30,15,09,29.50
2009,07,30,15,10,29.60
2009,07,30,15,11,29.60
2009,07,30,15,12,29.60
2009,07,30,15,13,29.60
2009,07,30,15,14,29.60
2009,07,30,15,15,29.60
2009,07,30,15,16,29.50
2009,07,30,15,17,29.50
2009,07,30,15,18,29.50
2009,07,30,15,19,29.60
2009,07,30,15,20,29.60
2009,07,30,15,21,29.60
2009,07,30,15,22,29.70
2009,07,30,15,23,29.70
2009,07,30,15,24,29.70
2009,07,30,15,25,29.60
2009,07,30,15,26,29.60
2009,07,30,15,27,29.70
2009,07,30,15,28,29.70
2009,07,30,15,29,29.80
2009,07,30,15,30,29.80
2009,07,30,15,31,29.90
2009,07,30,15,32,29.90
2009,07,30,15,33,30.00
2009,07,30,15,34,30.10
2009,07,30,15,35,30.10
2009,07,30,15,36,30.20
2009,07,30,15,37,30.20
2009,07,30,15,38,30.20
2009,07,30,15,39,30.30
2009,07,30,15,40,30.30
2009,07,30,15,41,30.30
2009,07,30,15,42,30.20
2009,07,30,15,43,30.20
2009,07,30,15,44,30.10
2009,07,30,15,45,30.00
2009,07,30,15,46,30.00
2009,07,30,15,47,30.00
2009,07,30,15,48,29.90
2009,07,30,15,49,29.80
2009,07,30,15,50,29.80
2009,07,30,15,51,29.90
2009,07,30,15,52,29.90
2009,07,30,15,53,30.00
2009,07,30,15,54,30.10
2009,07,30,15,55,30.10
2009,07,30,15,56,30.20
2009,07,30,15,57,30.10
2009,07,30,15,58,30.00
2009,07,30,15,59,29.90
2009,07,30,16,00,29.90
2009,07,30,16,01,29.90
2009,07,30,16,02,29.90
2009,07,30,16,03,29.90
2009,07,30,16,04,30.00
2009,07,30,16,05,30.00
2009,07,30,16,06,30.00
2009,07,30,16,07,30.00
2009,07,30,16,08,30.00
2009,07,30,16,09,30.10
2009,07,30,16,10,30.00
2009,07,30,16,11,30.00
2009,07,30,16,12,30.00
2009,07,30,16,13,29.90
2009,07,30,16,14,29.90
2009,07,30,16,15,30.00
2009,07,30,16,16,30.00
2009,07,30,16,17,30.00
2009,07,30,16,18,30.00
2009,07,30,16,19,30.10
2009,07,30,16,20,30.00
2009,07,30,16,21,29.90
2009,07,30,16,22,29.80
2009,07,30,16,23,29.80
2009,07,30,16,24,29.80
2009,07,30,16,25,29.70
2009,07,30,16,26,29.70
2009,07,30,16,27,29.70
2009,07,30,16,28,29.60
2009,07,30,16,29,29.60
2009,07,30,16,30,29.60
2009,07,30,16,31,29.60
2009,07,30,16,32,29.60
2009,07,30,16,33,29.70
2009,07,30,16,34,29.70
2009,07,30,16,35,29.70
2009,07,30,16,36,29.70
2009,07,30,16,37,29.70
2009,07,30,16,38,29.60
2009,07,30,16,39,29.50
2009,07,30,16,40,29.60
2009,07,30,16,41,29.60
2009,07,30,16,42,29.70
2009,07,30,16,43,29.70
2009,07,30,16,44,29.70
2009,07,30,16,45,29.70
2009,07,30,16,46,29.70
2009,07,30,16,47,29.70
2009,07,30,16,48,29.70
2009,07,30,16,49,29.70
2009,07,30,16,50,29.70
2009,07,30,16,51,29.70
2009,07,30,16,52,29.70
2009,07,30,16,53,29.70
2009,07,30,16,54,29.80
2009,07,30,16,55,29.90
2009,07,30,16,56,29.90
2009,07,30,16,57,29.90
2009,07,30,16,58,29.90
2009,07,30,16,59,30.00
2009,07,30,17,00,30.00
2009,07,30,17,01,30.10
2009,07,30,17,02,30.10
2009,07,30,17,03,30.10
2009,07,30,17,04,30.10
2009,07,30,17,05,30.10
2009,07,30,17,06,30.10
2009,07,30,17,07,30.20
2009,07,30,17,08,30.20
2009,07,30,17,09,30.30
2009,07,30,17,10,30.30
2009,07,30,17,11,30.40
2009,07,30,17,12,30.50
2009,07,30,17,13,30.50
2009,07,30,17,14,30.50
2009,07,30,17,15,30.50
2009,07,30,17,16,30.40
2009,07,30,17,17,30.40
2009,07,30,17,18,30.40
2009,07,30,17,19,30.40
2009,07,30,17,20,30.40
2009,07,30,17,21,30.40
2009,07,30,17,22,30.40
2009,07,30,17,23,30.40